Regional Weather Roundup
Issued by NWS Boston, MA

Home | Current Version | Previous Version | Text Only | Print | Product List | Glossary On
Versions: 1 2 3 4 5 6 7 8 9 10 11 12 13 14 15 16 17 18 19 20 21 22 23 24 25 26 27 28 29 30 31 32 33 34 35 36 37 38 39 40 41 42 43 44 45 46 47 48 49 50
000
ASUS41 KBOX 040210
RWRBOX

REGIONAL WEATHER ROUNDUP
NATIONAL WEATHER SERVICE TAUNTON MA
1000 PM EDT FRI JUL 03 2015

NOTE:  "FAIR" INDICATES FEW OR NO CLOUDS BELOW 12,000 FEET WITH NO
SIGNIFICANT WEATHER AND/OR OBSTRUCTIONS TO VISIBILITY.  THE FOLLOWING
OBSERVATION LOCATIONS DO NOT REPORT PRESENT WEATHER...PROVINCETOWN...
SMITHFIELD...BLOCK ISLAND...KEENE...AND OXFORD.

MAZALL-040300-
EASTERN MASSACHUSETTS

CITY           SKY/WX    TMP DP  RH WIND       PRES   REMARKS
BOSTON         MOCLDY    70  56  61 SW13      29.98R
BEVERLY        MOCLDY    62  51  67 SE3       29.97R
LAWRENCE       PTCLDY    67  53  61 SE5       29.99R
BEDFORD        MOCLDY    61  56  83 CALM      29.97R
BLUE HILL        N/A     66  53  63 S10       29.99R
NORWOOD        CLOUDY    65  55  70 S5        29.99R
MARSHFIELD     MOCLDY    66  52  59 SW5       30.01R
PLYMOUTH       MOCLDY    65  57  75 S5        30.01R
TAUNTON        MOCLDY    63  54  72 SE3       30.00R
NEW BEDFORD    PTCLDY    63  58  83 SW3       30.00R
$$

MAZALL-040300-
CAPE COD AND THE ISLANDS

CITY           SKY/WX    TMP DP  RH WIND       PRES   REMARKS
FALMOUTH       MOCLDY    63  55  77 SW3       30.01R
HYANNIS        PTCLDY    65  55  70 S6        30.00R
CHATHAM        MOCLDY    59  55  87 S3        30.02R
PROVINCETOWN   MOCLDY    63   7  11 S10       30.01R
NANTUCKET      PTCLDY    58  55  90 S5        30.02R
MARTHAS VNYRD  PTCLDY    59  56  89 S6        30.02R
$$

MAZALL-040300-
CENTRAL AND WESTERN MASSACHUSETTS

CITY           SKY/WX    TMP DP  RH WIND       PRES   REMARKS
WORCESTER      MOCLDY    68  50  52 S7        30.01R
FITCHBURG      MOCLDY    62  56  80 CALM      29.99R
ORANGE         PTCLDY    61  57  87 CALM      29.99R
SPRINGFIELD    MOCLDY    62  56  81 SE3       29.97R
WESTFIELD      MOCLDY    63  59  87 CALM      29.98R
NORTH ADAMS    PTCLDY    57  53  86 CALM      30.00R
PITTSFIELD     MOCLDY    56  52  86 CALM      30.00R
$$

RIZALL-040300-
RHODE ISLAND

CITY           SKY/WX    TMP DP  RH WIND       PRES   REMARKS
PROVIDENCE     MOCLDY    66  55  67 S6        30.01R
NEWPORT        PTCLDY    64  58  80 S3        30.01R
BLOCK ISLAND   PTCLDY    64  61  88 S8        30.01R
SMITHFIELD     CLOUDY    61  48  63 S3        30.00R
WESTERLY       MOCLDY    64  58  80 CALM      30.01R
$$

CTZALL-040300-
CONNECTICUT

CITY           SKY/WX    TMP DP  RH WIND       PRES   REMARKS
BRADLEY INTL   CLOUDY    69  54  58 S6        29.97R
HARTFORD       CLOUDY    67  56  67 SE9       29.98R
BRIDGEPORT     MOCLDY    70  60  70 S7        29.98R
DANBURY        CLOUDY    68  52  56 S5        30.00R
GROTON         PTCLDY    64  60  87 SE3       29.99R
NEW HAVEN      MOCLDY    67  61  81 S5        29.99R
CHESTER        NOT AVBL
MERIDEN        MOCLDY    65  57  75 CALM      29.99R
WILLIMANTIC    MOCLDY    67  56  67 CALM      30.00R
OXFORD         MOCLDY    64  54  68 CALM      30.01R
$$

MEZ002-015-021-024-NHZ003-005-008-011-012-014-VTZ005-008-040300-
NORTHERN NEW ENGLAND

CITY           SKY/WX    TMP DP  RH WIND       PRES   REMARKS
PORTLAND ME    PTCLDY    63  56  78 CALM      29.96R
BANGOR ME      CLEAR     64  50  60 W5        29.94R
CONCORD NH     CLEAR     60  56  86 CALM      29.98R
MANCHESTER NH  MOCLDY    69  54  58 CALM      29.96R
NASHUA NH      PTCLDY    64  57  78 CALM      29.98R
PORTSMOUTH NH  MOCLDY    64  54  70 S3        29.96R
JAFFREY NH     PTCLDY    57  54  89 CALM      30.01R
KEENE NH       PTCLDY    61  54  77 CALM      29.99R
BURLINGTON VT  MOCLDY    64  54  69 E3        29.96R
MT. WASHINGTON PTCLDY    43  36  75 W22         N/A
$$

NYZ052-076-040300-
EASTERN NEW YORK

CITY           SKY/WX    TMP DP  RH WIND       PRES   REMARKS
ALBANY         MOCLDY    66  50  56 CALM      29.97S
NEW YORK CITY  CLOUDY    73  58  59 S9        29.97R
$$

ANZALL-040300-
MARINE OBSERVATIONS

STATION/POSITION TIME  TEMP    WIND        PRES    VSBY  WAVE
                       AIR SEA DIR/SP/G                  HT/PER
                 (UTC) (F)     (DEG/KT/KT) (MB)    (MI)  (FT/S)
BOSTON BUOY      0150   65 63  180/ 12/ 12 1015.5R         2/ 6
BUZZARDS BAY     0100          190/  7/  7 1016.4R
NANTUCKET SOUND  0150   66 67  190/  8/ 10 1016.1R         1/ 5
MASS BAY-STELLWA 0104   65 61  160/ 12/ 14 1013.8F  1 7/8  2/ 8
ISLE OF SHOALS   0100   66     190/ 14/ 15 1014.0R
S OF BLOCK IS    0108      67                N/A           3/ 7
$$

......................KEY.........................
  SKY/WX - SKY CONDITION/PRESENT WEATHER
  TMP    - TEMPERATURE IN FAHRENHEIT
  DWPT   - DEWPOINT IN FAHRENHEIT
  RH     - RELATIVE HUMIDITY IN PERCENT
  WIND   - DIRECTION AND SPEED IN MPH
  PRES   - MEAN SEA LEVEL PRESSURE IN INCHES OF HG
  WCI    - WIND CHILL INDEX
  VSB    - VISIBILITY IN MILES
  HX     - HEAT INDEX
  TC     - TEMPERATURE IN CELSIUS
  VRB    - VARIABLE WIND DIRECTION
  N/A    - NOT AVAILABLE


USA.gov is the U.S. government's official web portal to all federal, state and local government web resources and services.